DAL1421 KSFO-KLAX

Flight info

Callsign DAL1421
Flight time N/A
Altitude 35000
Route WESLA5 SUSEY EBAYE BURGL IRNMN2
Aircraft A320/M-SDE3FGHIRWY/LB1

Departure

Time 2026-05-05 12:48
Airport San Francisco International Airport (KSFO)

Arrival

Time N/A
Airport Los Angeles International Airport (KLAX)
Time Latitude Longitude Altitude Speed Heading
2026-05-05 12:15 37.61460 -122.38320 22 ft 0 kts 28°
2026-05-05 12:35 37.61445 -122.38331 23 ft 4 kts 31°
2026-05-05 12:36 37.61425 -122.38344 23 ft 4 kts 17°
2026-05-05 12:36 37.61402 -122.38341 23 ft 4 kts 316°
2026-05-05 12:36 37.61388 -122.38316 23 ft 4 kts 297°
2026-05-05 12:36 37.61376 -122.38288 25 ft 3 kts 299°
2026-05-05 12:37 37.61360 -122.38264 22 ft 4 kts 344°
2026-05-05 12:37 37.61335 -122.38266 24 ft 4 kts 25°
2026-05-05 12:37 37.61317 -122.38277 23 ft 0 kts 27°
2026-05-05 12:42 37.61323 -122.38274 23 ft 4 kts 25°
2026-05-05 12:42 37.61347 -122.38241 22 ft 5 kts 75°
2026-05-05 12:42 37.61348 -122.38204 22 ft 4 kts 80°
2026-05-05 12:43 37.61389 -122.38148 23 ft 10 kts 28°
2026-05-05 12:43 37.61449 -122.38108 22 ft 10 kts 28°
2026-05-05 12:43 37.61533 -122.38053 23 ft 16 kts 27°
2026-05-05 12:43 37.61628 -122.37989 24 ft 15 kts 28°
2026-05-05 12:44 37.61677 -122.37897 22 ft 13 kts 91°
2026-05-05 12:44 37.61666 -122.37782 22 ft 17 kts 97°
2026-05-05 12:44 37.61648 -122.37609 23 ft 21 kts 96°
2026-05-05 12:44 37.61631 -122.37426 22 ft 21 kts 97°
2026-05-05 12:45 37.61602 -122.37237 24 ft 23 kts 113°
2026-05-05 12:45 37.61527 -122.37053 22 ft 24 kts 117°
2026-05-05 12:45 37.61431 -122.36875 22 ft 26 kts 134°
2026-05-05 12:45 37.61328 -122.36694 22 ft 23 kts 117°
2026-05-05 12:46 37.61250 -122.36506 22 ft 25 kts 118°
2026-05-05 12:46 37.61166 -122.36309 23 ft 26 kts 118°
2026-05-05 12:46 37.61103 -122.36155 24 ft 13 kts 110°
2026-05-05 12:46 37.61146 -122.36078 23 ft 11 kts 28°
2026-05-05 12:47 37.61209 -122.36035 22 ft 10 kts 28°
2026-05-05 12:47 37.61262 -122.36050 23 ft 8 kts 307°
2026-05-05 12:47 37.61291 -122.36120 23 ft 16 kts 297°
2026-05-05 12:47 37.61447 -122.36498 22 ft 84 kts 298°
2026-05-05 12:48 37.61815 -122.37377 22 ft 142 kts 298°
2026-05-05 12:48 37.62362 -122.38643 238 ft 169 kts 297°
2026-05-05 12:48 37.62916 -122.39884 1048 ft 163 kts 298°
2026-05-05 12:48 37.63463 -122.41158 1750 ft 167 kts 297°
2026-05-05 12:49 37.64017 -122.42529 2211 ft 184 kts 297°
2026-05-05 12:49 37.64663 -122.44046 2547 ft 209 kts 298°
2026-05-05 12:49 37.65401 -122.45722 3104 ft 223 kts 299°
2026-05-05 12:49 37.66167 -122.47441 3965 ft 227 kts 299°
2026-05-05 12:50 37.66837 -122.49256 4816 ft 232 kts 282°
2026-05-05 12:50 37.66635 -122.51288 5568 ft 244 kts 244°
2026-05-05 12:50 37.65434 -122.52818 6298 ft 255 kts 206°
2026-05-05 12:50 37.63676 -122.53199 7006 ft 263 kts 173°
2026-05-05 12:51 37.61876 -122.52689 7764 ft 267 kts 160°
2026-05-05 12:51 37.60112 -122.51882 8548 ft 272 kts 156°
2026-05-05 12:51 37.58334 -122.51021 9335 ft 277 kts 156°
2026-05-05 12:51 37.56516 -122.50200 10096 ft 283 kts 157°
2026-05-05 12:52 37.54602 -122.49417 10806 ft 288 kts 159°
2026-05-05 12:52 37.52697 -122.48706 11556 ft 291 kts 159°
2026-05-05 12:52 37.50777 -122.47903 12300 ft 290 kts 151°
2026-05-05 12:52 37.48986 -122.46739 12985 ft 293 kts 142°
2026-05-05 12:53 37.47338 -122.45163 13450 ft 300 kts 130°
2026-05-05 12:53 37.45898 -122.43262 14120 ft 301 kts 126°
2026-05-05 12:53 37.44470 -122.41304 14772 ft 305 kts 126°
2026-05-05 12:53 37.43022 -122.39331 15405 ft 310 kts 127°
2026-05-05 12:54 37.40558 -122.35985 16456 ft 317 kts 127°
2026-05-05 12:54 37.39052 -122.33942 17118 ft 320 kts 127°
2026-05-05 12:54 37.37526 -122.31871 17745 ft 324 kts 127°
2026-05-05 12:55 37.35985 -122.29779 18372 ft 328 kts 127°
2026-05-05 12:55 37.34426 -122.27666 18916 ft 331 kts 127°
2026-05-05 12:55 37.32852 -122.25533 19487 ft 334 kts 127°
2026-05-05 12:55 37.31263 -122.23377 19941 ft 341 kts 127°
2026-05-05 12:56 37.29632 -122.21161 20358 ft 348 kts 127°
2026-05-05 12:56 37.27950 -122.18877 20500 ft 364 kts 127°
2026-05-05 12:56 37.26190 -122.16488 20642 ft 381 kts 127°
2026-05-05 12:56 37.24358 -122.14001 20815 ft 395 kts 127°
2026-05-05 12:57 37.22492 -122.11482 21234 ft 402 kts 128°
2026-05-05 12:57 37.20573 -122.08906 21731 ft 406 kts 127°
2026-05-05 12:57 37.18639 -122.06311 22265 ft 409 kts 127°
2026-05-05 12:57 37.16687 -122.03689 22773 ft 413 kts 127°
2026-05-05 12:58 37.14720 -122.01047 23281 ft 416 kts 127°
2026-05-05 12:58 37.12738 -121.98385 23747 ft 419 kts 127°
2026-05-05 12:58 37.10740 -121.95697 24183 ft 422 kts 127°
2026-05-05 12:58 37.08736 -121.93004 24616 ft 424 kts 127°
2026-05-05 12:59 37.06717 -121.90298 25038 ft 426 kts 127°
2026-05-05 12:59 37.04689 -121.87584 25443 ft 428 kts 127°
2026-05-05 12:59 37.02651 -121.84858 25843 ft 430 kts 126°
2026-05-05 13:00 36.98563 -121.79393 26598 ft 434 kts 126°
2026-05-05 13:00 36.96492 -121.76632 26977 ft 436 kts 126°
2026-05-05 13:01 36.90228 -121.68276 28047 ft 443 kts 126°
2026-05-05 13:01 36.88112 -121.65457 28387 ft 445 kts 126°
2026-05-05 13:01 36.85986 -121.62630 28702 ft 447 kts 126°
2026-05-05 13:01 36.83850 -121.59793 29022 ft 450 kts 126°
2026-05-05 13:02 36.81699 -121.56941 29332 ft 452 kts 126°
2026-05-05 13:02 36.79543 -121.54085 29642 ft 453 kts 126°
2026-05-05 13:02 36.77375 -121.51219 29954 ft 455 kts 126°
2026-05-05 13:02 36.75201 -121.48342 30230 ft 456 kts 126°
2026-05-05 13:03 36.73020 -121.45457 30459 ft 458 kts 126°
2026-05-05 13:03 36.70826 -121.42558 30697 ft 460 kts 126°
2026-05-05 13:03 36.68631 -121.39659 30920 ft 461 kts 126°
2026-05-05 13:03 36.66431 -121.36757 31236 ft 460 kts 126°
2026-05-05 13:04 36.64236 -121.33866 31567 ft 459 kts 126°
2026-05-05 13:04 36.62048 -121.30985 31886 ft 457 kts 126°
2026-05-05 13:04 36.59865 -121.28111 32199 ft 457 kts 126°
2026-05-05 13:04 36.57679 -121.25241 32513 ft 456 kts 126°
2026-05-05 13:05 36.55500 -121.22382 32836 ft 455 kts 126°
2026-05-05 13:05 36.53350 -121.19568 33137 ft 455 kts 126°
2026-05-05 13:05 36.51173 -121.16716 33434 ft 454 kts 126°
2026-05-05 13:05 36.49001 -121.13868 33736 ft 454 kts 126°
2026-05-05 13:06 36.46832 -121.11028 34047 ft 453 kts 126°
2026-05-05 13:06 36.44660 -121.08189 34302 ft 453 kts 126°
2026-05-05 13:06 36.42495 -121.05341 34533 ft 453 kts 126°
2026-05-05 13:06 36.40389 -121.02437 34756 ft 452 kts 125°
2026-05-05 13:07 36.38329 -120.99474 34963 ft 453 kts 124°
2026-05-05 13:07 36.36296 -120.96487 35053 ft 452 kts 124°
2026-05-05 13:07 36.32247 -120.90534 35065 ft 451 kts 124°
2026-05-05 13:08 36.28164 -120.84627 35066 ft 451 kts 125°
2026-05-05 13:08 36.24042 -120.78740 35064 ft 452 kts 126°
2026-05-05 13:09 36.19907 -120.72862 35063 ft 453 kts 126°
2026-05-05 13:09 36.15790 -120.67019 35057 ft 453 kts 126°
2026-05-05 13:10 36.11657 -120.61130 35051 ft 453 kts 126°